Weather past 2 weeks in Jamestown, Saint Helena

Now
69 °F

Mild.


Feels Like: 69 °F
Forecast: N/A
Wind: 15 mph from Southeast

Location: Saint Helena Island

Current Time: Jan 31, 2015 at 8:03:57 PM

Latest Report: Jan 31, 2015 at 7:00 PM


Visibility: N/A

Pressure: 29.98 "Hg

Humidity: 93%

Dew point: 67 °F

Location of JamestownLocation

Historic Weather in Jamestown — Graph

°F

Jamestown temperature yesterday

Maximum temperature yesterday: 75 °F (at 12:00 PM)
Minimum temperature yesterday: 65 °F (at 3:00 AM)
Average temperature yesterday: 70 °F

Past Weeks' High & Low Weather Summary

 TemperatureHumidityPressure
High77 °F (Jan 27, 2:00 PM)99% (Jan 18, 10:00 AM)30.10 "Hg (Jan 18, 10:00 AM)
Low64 °F (Jan 29, 3:00 AM)52% (Jan 27, 12:00 PM)29.89 "Hg (Jan 25, 5:00 PM)
Average69 °F84%30.00 "Hg
* Reported Jan 16 6:00 PM — Jan 31 6:00 PM, Jamestown, Weather by CustomWeather, © 2014

Note: Actual official high and low records may vary slightly from our data, if they occured in-between our weather recording intervals... More about our weather records

Advertising

Jamestown weather history for previous 24 hours

 ConditionsComfort  
Time TempWeatherWind HumidityBarometerVisibility
6:00 PM
Jan 31
70 °FMild.13 mph87%29.98 "HgN/A
5:00 PM71 °FMild.14 mph83%29.98 "HgN/A
4:00 PM71 °FMild.14 mph85%29.99 "HgN/A
3:00 PM72 °FMild.15 mph80%29.99 "HgN/A
2:00 PM71 °FMild.15 mph82%30.01 "HgN/A
1:00 PM73 °FMild.17 mph80%30.03 "HgN/A
12:00 PM76 °FMild.20 mph71%30.03 "HgN/A
11:00 AM76 °FPassing clouds.15 mph66%30.04 "Hg37 mi
10:00 AM74 °FMild.15 mph73%30.06 "HgN/A
9:00 AM73 °FMild.13 mph74%30.07 "HgN/A
8:00 AM70 °FMild.14 mph78%30.07 "HgN/A
7:00 AM68 °FMild.15 mph86%30.07 "HgN/A
6:00 AM67 °FMild.13 mph90%30.04 "HgN/A
5:00 AM67 °FMild.15 mph90%30.02 "HgN/A
3:00 AM67 °FMild.12 mph90%30.02 "HgN/A
2:00 AM68 °FMild.12 mph91%30.03 "HgN/A
1:00 AM68 °FMild.13 mph90%30.04 "HgN/A
12:00 AM68 °FMild.12 mph89%30.06 "HgN/A
11:00 PM
Jan 30
69 °FMild.13 mph89%30.07 "HgN/A
10:00 PM69 °FMild.13 mph95%30.05 "HgN/A
8:00 PM69 °FMild.7 mph88%30.02 "HgN/A
Weather by CustomWeather, © 2014

See weather overviewHow to use our weather pages